Weather History for CYZX - January, 2013

Change the Weather History Date:

Thursday, January 31, 2013

  Actual Average Record
Temperature  
Mean Temperature 51 °F -  
Max Temperature 61 °F 31 °F 61 °F (2013)
Min Temperature 39 °F 13 °F -2 °F (2007)
Degree Days  
Heating Degree Days 14    
Growing Degree Days 1 (Base 50)    
Moisture  
Dew Point 49 °F    
Average Humidity 80    
Maximum Humidity 94    
Minimum Humidity 56    
Precipitation  
Precipitation 0.20 in 0.11 in - ()
Sea Level Pressure  
Sea Level Pressure 29.27 in    
Wind  
Wind Speed 20 mph ()    
Max Wind Speed 32 mph    
Max Gust Speed 41 mph    
Visibility 11.9 miles    
Events Rain    
Averages and records for this station are not official NWS values.
T = Trace of Precipitation, MM = Missing Value Source: Averaged Metar Reports

Daily Weather History Graph

Daily Weather History Graph

Search for Another Location

Airport or City:

Trip Planner

Search our weather history database for the weather conditions in past years. The results will help you decide how hot, cold, wet, or windy it might be!

Date:

Astronomy

Jan. 31, 2013 Rise Set
Actual Time 7:40 AM AST 5:26 PM AST
Civil Twilight 7:08 AM AST 5:57 PM AST
Nautical Twilight 6:33 AM AST 6:33 PM AST
Astronomical Twilight 5:59 AM AST 7:07 PM AST
Moon 10:40 PM AST (1/31) 9:22 AM AST (1/31)
Length of Visible Light 10h 48m
Length of Day
9h 46m
Waning Gibbous, 80% of the Moon is Illuminated
Jan 31
Waning Gibbous
Feb 3
Last Quarter
Feb 10
New
Feb 17
First Quarter
Feb 25
Full

Hourly Weather History & Observations

Time (AST) Temp. Windchill Dew Point Humidity Pressure Visibility Wind Dir Wind Speed Gust Speed Precip Events Conditions
12:00 AM 59.0 °F - 55.4 °F 88% 29.57 in 9.0 mi SSW 19.6 mph 29.9 mph N/A Rain Light Rain
12:41 AM - - - N/A% - 15.0 mi SSW 20.7 mph 27.6 mph N/A   Overcast
1:00 AM 59.0 °F - 55.4 °F 88% 29.55 in 15.0 mi SW 20.7 mph 31.1 mph N/A   Overcast
2:00 AM 61 °F - 55 °F 75% 29.55 in 15 mi SW 23.0 mph - -   Partly Cloudy
2:00 AM 60.8 °F - 55.4 °F 82% 29.55 in 15.0 mi SW 27.6 mph 40.3 mph N/A   Overcast
3:00 AM 60.8 °F - 53.6 °F 77% 29.54 in 15.0 mi SSW 20.7 mph 29.9 mph N/A   Overcast
4:00 AM 60.8 °F - 55.4 °F 82% 29.52 in 15.0 mi SSW 19.6 mph 31.1 mph N/A   Overcast
5:00 AM 59.0 °F - 55.4 °F 88% 29.49 in 15.0 mi SSW 16.1 mph 25.3 mph N/A   Overcast
5:10 AM - - - N/A% - 12.0 mi SSW 17.3 mph 25.3 mph N/A Rain Light Rain
6:00 AM 60.8 °F - 55.4 °F 82% 29.46 in 15.0 mi SSW 16.1 mph 32.2 mph N/A Rain Light Rain
6:17 AM - - - N/A% - 15.0 mi SSW 19.6 mph 33.4 mph N/A   Overcast
7:00 AM 60.8 °F - 53.6 °F 77% 29.43 in 15.0 mi SSW 19.6 mph 33.4 mph N/A   Overcast
7:33 AM - - - N/A% - 15.0 mi SSW 18.4 mph 28.8 mph N/A   Overcast
8:00 AM 61 °F - 57 °F 81% 29.37 in 15 mi SSW 20.7 mph - -   Partly Cloudy
8:00 AM 60.8 °F - 57.2 °F 88% 29.36 in 15.0 mi SSW 15.0 mph 34.5 mph N/A   Mostly Cloudy
9:00 AM 60.8 °F - 53.6 °F 77% 29.33 in 15.0 mi South 27.6 mph 40.3 mph N/A   Overcast
9:11 AM - - - N/A% - 15.0 mi South 28.8 mph 40.3 mph N/A Rain Light Rain Showers
10:00 AM 60.8 °F - 53.6 °F 77% 29.31 in 15.0 mi South 23.0 mph 33.4 mph N/A Rain Light Rain Showers
11:00 AM 59.0 °F - 53.6 °F 82% 29.25 in 12.0 mi South 26.5 mph 35.7 mph N/A Rain Light Rain Showers
11:42 AM - - - N/A% - 3.0 mi South 28.8 mph 36.8 mph N/A Rain Light Rain
12:00 PM 59.0 °F - 55.4 °F 88% 29.18 in 3.0 mi South 25.3 mph 39.1 mph N/A Rain Light Rain
12:28 PM - - - N/A% - 5.0 mi South 24.2 mph 35.7 mph N/A Rain Light Rain
1:00 PM 59.0 °F - 55.4 °F 88% 29.07 in 6.0 mi South 25.3 mph 39.1 mph N/A Rain Light Rain
1:21 PM - - - N/A% - 3.0 mi South 24.2 mph 38.0 mph N/A Rain Light Rain
2:00 PM 58 °F - 55 °F 86% 29.00 in 3 mi South 26.5 mph - - Rain Light Rain
2:00 PM 59.0 °F - 55.4 °F 88% 28.99 in 3.0 mi South 28.8 mph 40.3 mph N/A Rain Light Rain
3:00 PM 57.2 °F - 55.4 °F 94% 28.94 in 3.0 mi SSW 20.7 mph 35.7 mph N/A Rain Light Rain
3:21 PM - - - N/A% - 6.0 mi SW 32.2 mph 40.3 mph N/A Rain Light Rain Showers
4:00 PM 55.4 °F - 50.0 °F 82% 28.99 in 12.0 mi SW 25.3 mph 39.1 mph N/A Rain Light Rain Showers
4:12 PM - - - N/A% - 15.0 mi SW 21.9 mph 41.4 mph N/A   Mostly Cloudy
5:00 PM 51.8 °F - 44.6 °F 76% 28.99 in 15.0 mi SW 26.5 mph 39.1 mph N/A   Mostly Cloudy
6:00 PM 46.4 °F 37.7 °F 42.8 °F 87% 29.08 in 15.0 mi SW 26.5 mph 41.4 mph N/A   Mostly Cloudy
7:00 PM 44.6 °F 35.9 °F 35.6 °F 71% 29.11 in 15.0 mi SW 23.0 mph 32.2 mph N/A   Mostly Cloudy
7:32 PM - - - N/A% - 15.0 mi SW 17.3 mph 29.9 mph N/A Rain Light Rain Showers
8:00 PM 44 °F - 36 °F 66% 29.13 in 12 mi SW 19.6 mph - - Rain Light Rain Showers
8:00 PM 42.8 °F 34.3 °F 37.4 °F 81% 29.13 in 12.0 mi SW 19.6 mph 27.6 mph N/A Rain Light Rain Showers
9:00 PM 42.8 °F 33.8 °F 33.8 °F 70% 29.16 in 12.0 mi WSW 21.9 mph 29.9 mph N/A Rain Light Rain Showers
9:25 PM - - - N/A% - 15.0 mi SW 21.9 mph 31.1 mph N/A Rain Light Rain Showers
10:00 PM 41.0 °F 32.5 °F 30.2 °F 65% 29.18 in 15.0 mi WSW 17.3 mph 32.2 mph N/A   Mostly Cloudy
11:00 PM 39.2 °F 28.7 °F 24.8 °F 56% 29.21 in 15.0 mi WSW 23.0 mph 32.2 mph N/A   Mostly Cloudy
11:31 PM - - - N/A% - 12.0 mi WSW 20.7 mph 34.5 mph N/A   Unknown